Location: Zagreb
(45.8000°N, 16.0000°E)
Time: 22:35:44
(UTC+01:00)

Tiros 1 despin weight - Pass Details

Date: 01 February 2020
Orbit: 594 x 642 km, 48.2° (Epoch: 24 February)

Event Time Altitude Azimuth Distance (km) Brightness Sun altitude
Rises 07:31:30 0° 200° (SSW) 2,820 ? 1.2°
Reaches altitude 10° 07:34:18 10° 182° (S) 1,928 ? 1.6°
Maximum altitude 07:37:23 19° 138° (SE) 1,457 ? 2.1°
Drops below altitude 10° 07:40:30 10° 94° (E) 1,952 ? 2.6°
Sets 07:43:22 0° 76° (ENE) 2,869 ? 3.0°
